Home > Weather > Szczecin > Past weeks

Flag for Poland Past Weather in Szczecin, Poland — Yesterday and Last 2 Weeks

Now
77 °F

Passing clouds.


Feels Like: 79 °F
Forecast: 61 / 74 °F
Wind: 7 mph from Northeast

Location: Szczecin Airport

Current Time: Jun 25, 2016 at 9:11:55 AM

Latest Report: Jun 25, 2016 at 8:30 AM


Visibility: N/A

Pressure: 29.89 "Hg

Humidity: 65%

Dew Point: 64 °F

Location of SzczecinLocation

Past Weather in Szczecin — Graph

°F

Szczecin Temperature Yesterday

Maximum temperature yesterday: 90 °F (at 1:30 PM)
Minimum temperature yesterday: 66 °F (at 4:30 AM)
Average temperature yesterday: 78 °F

High & Low Weather Summary for the Past Weeks

 TemperatureHumidityPressure
High90 °F (Jun 24, 1:30 PM)100% (Jun 11, 1:00 AM)30.27 "Hg (Jun 11, 1:00 AM)
Low41 °F (Jun 11, 3:30 AM)37% (Jun 11, 1:30 PM)29.42 "Hg (Jun 17, 11:00 AM)
Average63 °F75%29.87 "Hg
* Reported Jun 10 8:00 AM — Jun 25 8:00 AM, Szczecin, Weather by CustomWeather, © 2016

Note: Actual official high and low records may vary slightly from our data, if they occured in-between our weather recording intervals... More about our weather records

Advertising

Szczecin Weather History for the Previous 24 Hours

Scroll right to see more
 ConditionsComfort  
Time TempWeatherWind HumidityBarometerVisibility
8:00 AM
Sat, Jun 25
75 °FPassing clouds.6 mph69%29.92 "HgN/A
7:30 AM73 °FSunny.8 mph69%29.92 "Hg10 mi
7:00 AM70 °FPassing clouds.7 mph78%29.92 "HgN/A
6:30 AM70 °FPassing clouds.6 mph73%29.92 "HgN/A
6:00 AM68 °FPassing clouds.7 mph78%29.92 "HgN/A
5:30 AM68 °FClear.8 mph78%29.95 "Hg10 mi
5:00 AM66 °FClear.6 mph83%29.95 "Hg10 mi
4:30 AM68 °FPassing clouds.7 mph78%29.95 "HgN/A
4:00 AM68 °FClear.9 mph78%29.95 "Hg10 mi
3:30 AM68 °FClear.14 mph78%29.95 "Hg10 mi
3:00 AM70 °FClear.15 mph73%29.98 "Hg10 mi
2:30 AM70 °FClear.12 mph69%29.98 "Hg10 mi
2:00 AM70 °FClear.10 mph69%29.98 "Hg10 mi
1:30 AM72 °FPassing clouds.12 mph65%30.01 "HgN/A
1:00 AM72 °FPassing clouds.12 mph65%30.01 "HgN/A
12:30 AM72 °FPassing clouds.12 mph69%30.01 "HgN/A
12:00 AM72 °FClear.9 mph69%30.01 "Hg10 mi
11:30 PM
Fri, Jun 24
73 °FClear.8 mph65%30.01 "Hg10 mi
11:00 PM73 °FClear.8 mph65%30.01 "Hg10 mi
10:30 PM75 °FSunny.8 mph65%30.01 "Hg10 mi
10:00 PM75 °FSunny.8 mph61%30.01 "Hg10 mi
9:30 PM77 °FSunny.10 mph61%29.98 "Hg10 mi
9:00 PM77 °FSunny.9 mph61%30.01 "Hg10 mi
8:30 PM79 °FSunny.10 mph61%30.01 "Hg10 mi
8:00 PM81 °FPassing clouds.12 mph58%30.01 "HgN/A
7:30 PM82 °FSunny.14 mph58%29.98 "Hg10 mi
7:00 PM86 °FPassing clouds.9 mph55%29.98 "HgN/A
6:30 PM88 °FPassing clouds.8 mph52%29.98 "HgN/A
6:00 PM88 °FPassing clouds.8 mph49%29.98 "HgN/A
5:30 PM90 °FPassing clouds.10 mph46%29.98 "HgN/A
5:00 PM88 °FPassing clouds.9 mph49%30.01 "HgN/A
4:30 PM88 °FPassing clouds.7 mph49%30.01 "HgN/A
4:00 PM90 °FPassing clouds.8 mph43%30.01 "HgN/A
3:30 PM90 °FPassing clouds.9 mph46%30.01 "HgN/A
3:00 PM90 °FPassing clouds.9 mph49%30.01 "HgN/A
2:30 PM90 °FPassing clouds.10 mph43%30.04 "HgN/A
2:00 PM90 °FPassing clouds.8 mph43%30.04 "HgN/A
1:30 PM90 °FPassing clouds.13 mph46%30.04 "HgN/A
1:00 PM88 °FSunny.13 mph49%30.04 "Hg10 mi
12:30 PM88 °FSunny.15 mph49%30.04 "Hg10 mi
12:00 PM86 °FPassing clouds.13 mph52%30.04 "HgN/A
11:30 AM86 °FSunny.12 mph55%30.04 "Hg10 mi
11:00 AM82 °FSunny.8 mph58%30.04 "Hg10 mi
10:30 AM82 °FPassing clouds.9 mph55%30.04 "HgN/A
10:00 AM81 °FPassing clouds.10 mph58%30.04 "HgN/A
9:30 AM79 °FSunny.10 mph61%30.04 "Hg10 mi
9:00 AM77 °FSunny.10 mph65%30.04 "Hg10 mi
Weather by CustomWeather, © 2016

See weather overviewHow to use our weather pages